METEOR 2-17 DEB, 29302

Orbit data source: Space-Track

METEOR 2-17 DEB, 29302 is space debris in LEO originally from a launch on Sat, 30 Jan 1988 UTC launched from the Plesetsk Missile And Space Complex (PKMTR). Debris objects in space refer to the collection of defunct objects orbiting the Earth. Examples of debris include non-operational satellites, rocket bodies, and fragments generated from explosions, collisions, or faulty payload assembly.

Loading next visibility...
Identifier
29302, 1988-005R
Orbit
LEO
Country
Flag of CISCIS
Related business
Manufacturer
Unknown
Mission
Spacecraft
Bus & Motor
Unknown
Mass
Unknown
Launch date (UTC)
1988-01-30 (38 years ago)
Launch vehicle
Unknown
Launch site
Plesetsk Missile And Space Complex (PKMTR)
Object type
Payload
Rocket body
Debris
Shape & HBR
Unknown shape, 0.1 m
Radar Cross Section
Small (<0.1 m²)

Expand to show TLE details & history
Last TLE update: 1 day ago

TLE from 1 day ago
0 METEOR 2-17 DEB
1 29302U 88005R   25351.77826348  .00002198  00000-0  12698-2 0  9996
2 29302  82.5573   3.5844 0013563  64.8388 295.4191 14.08584781596217
Epoch: 2025-12-17T18:40Z
TLE epoch observation values (Epoch: 2025-12-17T18:40:41.964Z)
Latitude
-0.00003°
Longitude
-3.23369°
Altitude
862.949 km
Speed
7.423 km/s
True Right ascension
00h 14m 20s
True Declination
0° 00' 00"
Sunlit
Object was in daylight at epoch
Visualization orbit readout
Latitude
Unknown
Longitude
Unknown
Altitude
Unknown
Speed
Unknown
Apparent Right ascension
Unknown
Apparent Declination
Unknown
Sunlit
N/A
Visualization observer readout
Local Sidereal Time
20:41:42
Azimuth
Unknown
Elevation
Unknown
Doppler factor
Unknown
Orbital elements
Apogee altitude
871.155 km
Perigee altitude
851.518 km
Semi-major axis
7,239.473 km
Eccentricity
0.00136
Inclination
82.5573°
RAAN
3.5844°
Arg. of periapsis
64.8388°
True anomaly
295.27862°
Mean anomaly
295.4191°
Eccentric anomaly
295.34887°
Mean motion
3.52357 °/min
Orbital period
102.17 mins
BSTAR
0.0012698
Loading maneuver chart data...
Computing Atmospheric mass density...
Loading historical data...
Loading historical data...
Loading historical data...
Loading historical data...
Loading historical data...
Loading historical data...
Loading historical data...

Documentation

Showing up to 5 results
|